#timestamp,LO_Frequency,Hit,StdDev 
1697893215.2,286047001.7,N
1697893265.1,286047001.6,E
1697893275.9,286047002.3,N
1697893295.7,286047002.8,P
1697893315.6,286047002.7,P
1697893335.4,286047000.1,N
1697893355.2,286046998.8,N
1697893375.1,286046999.5,N
1697893376.0,286046999.5,N
1697893395.8,286046999.3,N
1697893415.7,286046998.9,N
1697893435.5,286046996.5,N
1697893455.3,286046996.6,N
1697893475.2,286046997.1,N
1697893495.0,286046997.3,N
1697893495.9,286046997.3,N
1697893515.8,286046996.7,N
1697893535.6,286046999.4,N
1697893555.4,286046998.1,N
1697893575.3,286046998.8,N
1697893595.1,286046999.3,N
1697893615.9,286046998.7,N
1697893635.7,286046999.0,N
1697893655.5,286046998.9,N
1697893675.4,286046998.5,N
1697893695.2,286047001.2,N
1697893715.0,286046999.4,N
1697893716.0,286046999.4,N
1697893735.8,286046998.7,N
1697893755.6,286046996.5,N
1697893775.5,286046999.5,N
1697893795.3,286046998.8,N
1697893815.1,286047001.2,N
1697893835.9,286046999.7,N
1697893855.7,286047000.6,N
1697893875.6,286047000.6,N
1697893895.4,286047000.2,N
1697893915.2,286046999.8,N
1697893935.1,286046999.7,N
1697893936.0,286046999.7,N
1697893955.8,286047002.3,N
1697893975.7,286047000.0,N
1697893995.5,286047000.1,N
1697894015.3,286047002.8,N
1697894035.2,286047000.9,N
1697894055.0,286046998.1,N
1697894055.9,286046998.1,N
1697894075.8,286046998.7,N
1697894095.6,286046998.2,N
1697894115.4,286046999.4,N
1697894135.3,286046998.3,N
1697894155.1,286047000.7,N
1697894175.8,286046999.9,N
1697894195.7,286047000.3,N
1697894215.5,286046998.3,N
1697894235.4,286046998.8,N
1697894255.2,286047000.7,N
1697894275.0,286047001.1,N
1697894275.9,286047001.1,N
1697894295.8,286047000.2,N
1697894315.6,286047000.1,N
1697894335.4,286047000.3,N
1697894355.3,286047000.5,N
1697894375.1,286047000.1,N
1697894395.9,286046999.8,N
1697894415.7,286047000.4,N
1697894435.5,286047002.8,N
1697894455.4,286047000.5,N
1697894475.2,286047000.1,N
1697894495.1,286046998.3,N
1697894496.0,286046998.3,N
1697894515.8,286046998.9,N
1697894535.6,286046999.1,N
1697894555.5,286046998.3,N
1697894575.3,286046999.4,N
1697894595.1,286046999.1,N
1697894615.9,286046998.1,N
1697894635.8,286046999.0,N
1697894655.6,286047001.0,N
1697894675.4,286047001.2,N
1697894695.3,286047000.6,N
1697894715.1,286047000.7,N
1697894735.9,286046998.8,N
1697894755.7,286046998.2,N
1697894775.5,286046998.7,N
1697894795.4,286047001.1,N
1697894815.2,286046999.8,N
1697894835.1,286047002.8,N
1697894836.0,286047002.8,N
1697894855.8,286047002.4,N
1697894875.7,286047002.0,N
1697894895.5,286047011.9,Y
1697894915.4,286047002.3,P
1697894935.2,286046999.7,N
1697894955.0,286046999.9,N
1697894956.0,286046999.9,N
1697894975.8,286047000.3,N
1697894995.6,286047000.2,N
1697895015.5,286047000.4,N
1697895035.3,286047000.9,N
1697895055.1,286046999.9,N
1697895075.9,286047000.2,N
1697895095.7,286047000.3,N
1697895115.6,286047002.8,Y
1697895135.4,286047000.5,P
1697895155.2,286047000.3,P
1697895175.1,286047000.5,P
1697895206.0,286046998.4,E
1697895215.0,286047001.2,N
1697895215.9,286047001.2,P
1697895235.8,286047001.9,P
1697895255.6,286047001.4,Y
1697895275.4,286047002.8,P
1697895295.3,286047002.7,P
1697895315.1,286046999.7,N
1697895335.9,286047000.1,N
1697895355.7,286047000.2,N
1697895375.5,286047002.8,N
1697895395.4,286047002.0,N
1697895415.2,286047002.8,N
1697895435.0,286047002.8,N
1697895435.9,286047002.8,N
1697895455.8,286047002.1,N
1697895475.6,286047002.3,N
1697895495.5,286047002.5,N
1697895515.3,286047002.4,N
1697895535.1,286047002.4,N
1697895555.9,286047000.0,N
1697895575.7,286047002.7,N
1697895595.5,286047002.8,N
1697895615.4,286047002.8,N
1697895635.2,286047002.6,N
1697895655.1,286047002.7,N
1697895656.0,286047002.7,N
1697895675.8,286047002.8,N
1697895695.6,286047002.7,N
1697895715.5,286047002.0,N
1697895735.3,286047002.7,N
1697895755.2,286047002.4,N
1697895775.9,286047000.4,N
1697895795.7,286046999.7,N
1697895815.6,286047000.0,N
1697895835.4,286047000.8,N
1697895855.3,286046999.9,N
1697895875.1,286046999.8,N
1697895876.0,286046999.8,N
1697895895.8,286047002.4,N
1697895915.7,286046999.8,N
1697895935.5,286047001.1,N
1697895955.3,286047001.2,N
1697895975.2,286047001.0,N
1697895995.0,286046998.3,N
1697895995.9,286046998.3,N
1697896015.8,286047001.0,N
1697896035.6,286047001.1,N
1697896055.4,286046998.2,N
1697896075.3,286046999.3,N
1697896095.1,286046999.2,N
1697896115.9,286046999.1,N
1697896135.7,286046999.1,N
1697896155.5,286046996.9,N
1697896175.4,286046996.9,N
1697896195.2,286046997.1,N
1697896215.1,286046997.2,N
1697896216.0,286046997.2,N
1697896235.8,286046997.1,N
1697896255.6,286046996.8,N
1697896275.5,286046997.0,N
1697896295.3,286046995.5,N
1697896315.2,286046996.0,N
1697896335.9,286046995.5,N
1697896355.7,286046995.8,N
1697896375.6,286046995.5,N
1697896395.4,286046993.6,Y
1697896415.2,286046997.9,P
1697896435.1,286046994.9,P
1697896436.0,286046994.9,P
1697896455.8,286046994.9,Y
1697896475.7,286047001.2,P
1697896495.5,286047002.7,N
1697896515.3,286047000.7,N
1697896535.2,286046998.8,N
1697896555.0,286046998.1,N
1697896555.9,286046998.1,N
1697896575.8,286047000.7,N
1697896595.6,286046998.2,N
1697896615.4,286046998.2,N
1697896635.3,286046999.3,N
1697896655.1,286046999.0,N
1697896675.8,286046999.6,N
1697896695.7,286046996.9,N
1697896715.5,286046997.4,N
1697896735.4,286046997.2,N
1697896755.2,286046996.8,N
1697896775.0,286046996.8,N
1697896775.9,286046996.8,N
1697896795.8,286046997.8,N
